Regional Weather Roundup
Issued by NWS Kansas City/Pleasant Hill, MO

Home | Current Version | Previous Version | Graphics & Text | Print | Product List | Glossary Off
Versions: 1 2 3 4 5 6 7 8 9 10 11 12 13 14 15 16 17 18 19 20 21 22 23 24 25 26 27 28 29 30 31 32 33 34 35 36 37 38 39 40 41 42 43 44 45 46 47 48 49 50

000
ASUS43 KEAX 291304
RWREAX

WEATHER ROUNDUP FOR EASTERN KANSAS AND NORTHWEST MISSOURI
NATIONAL WEATHER SERVICE KANSAS CITY/PLEASANT HILL MO
700 AM CST THU JAN 29 2015

KSZ040-057-103>105-MOZ028-029-037-043-291400-
...KANSAS CITY METROPOLITAN AREA...

CITY           SKY/WX    TMP DP  RH WIND       PRES   REMARKS
K.C. INTL      CLOUDY    37  30  75 NW15      30.19R WCI  28
K.C. DOWNTOWN  CLOUDY    40  30  67 N14G21    30.19R WCI  32
LEES SUMMIT    CLOUDY    39  29  67 NW22G30   30.18R WCI  29
OLATHE - IXD   CLOUDY    37  29  72 N23G33    30.21R WCI  26
OLATHE - OJC   CLOUDY    38  30  73 N17G31    30.19R WCI  28
LAWRENCE       CLOUDY    38  28  67 N23G36    30.23R WCI  27

$$

MOZ001>008-011>017-020>025-030>033-038>040-044>046-053-054-291400-
...NORTHERN AND CENTRAL MISSOURI...

CITY           SKY/WX    TMP DP  RH WIND       PRES   REMARKS
ST. JOSEPH     CLOUDY    37  29  72 N24G35    30.21R WCI  26
MOSBY          CLOUDY    37  32  81 NW20G28   30.17R WCI  27
WARRENSBURG    CLOUDY    37  32  81 NW23      30.17R WCI  26
WHITEMAN AFB   CLOUDY    40  32  74 NW21G29   30.14R WCI  30
CLINTON        CLOUDY    43  36  75 N17G25    30.15R WCI  35
SEDALIA        CLOUDY    40  33  76 NW28G37   30.13R WCI  29
WARSAW         NOT AVBL
MARSHALL       CLOUDY    43  37  81 NW28G38   30.09R WCI  33
CHILLICOTHE      N/A     40  29  64 NW15G24   30.13R WCI  32
MOBERLY        CLOUDY    39  30  70 NW22G29   30.08R WCI  29
KIRKSVILLE     CLOUDY    37  31  78 NW13G23   30.06R WCI  29

$$

MOZ041-047>049-056>058-063>065-088>090-097-291400-
...EASTERN AND SOUTHERN MISSOURI...

CITY           SKY/WX    TMP DP  RH WIND       PRES   REMARKS
ST. LOUIS INTL CLOUDY    43  34  70 NW22G39   29.96R WCI  34
SPIRIT OF STL  CLOUDY    42  32  67 W25G36    30.00R WCI  32
COLUMBIA       CLOUDY    40  32  73 NW31G38   30.07R WCI  28
JEFFERSON CITY CLOUDY    42  33  70 NW18G28   30.08R WCI  34
MEXICO         CLOUDY    41  36  81 NW20G26   30.04R WCI  32
HANNIBAL       CLOUDY    39  28  65 NW17G30   30.03R WCI  30
ROLLA          CLOUDY    41  33  73 NW25G38   30.02R WCI  31
LEBANON        MOCLDY    45  36  70 NW15G28   30.07R
OSAGE BEACH    CLOUDY    45  32  61 NW9G24    30.09R
SPRINGFIELD    CLOUDY    46  37  71 N16G24    30.08R
BRANSON        PTCLDY    48  36  61 NW12G20   30.08R
NEVADA         CLOUDY    39  34  81 NW15G25   30.18R WCI  31
JOPLIN         MOCLDY    46  36  68 N16G29    30.15R
WEST PLAINS    CLEAR     47  36  65 NW12      30.01R

$$

IAZ060-094-KSZ022-034>040-054-083-096-NEZ052-066-093-291400-
...KANSAS...SOUTHEAST NEBRASKA AND IOWA...

CITY           SKY/WX    TMP DP  RH WIND       PRES   REMARKS
TOPEKA         CLOUDY    39  28  64 N18G26    30.26R WCI  30
MANHATTAN      CLOUDY    40  29  64 N10G21    30.28R WCI  33
EMPORIA        CLOUDY    39  29  67 N18G32    30.23R WCI  30
CHANUTE        CLOUDY    41  32  70 NW20G30   30.21R WCI  32
WICHITA        MOCLDY    42  30  62 N22G32    30.27R WCI  33
OMAHA          CLOUDY    36  28  73 NW18G29   30.22R WCI  26
LINCOLN        CLOUDY    38  28  67 N26G32    30.28R WCI  26
FALLS CITY     CLOUDY    37  28  70 NW16G26   30.22R WCI  28
LAMONI         CLOUDY    35  30  82 NW17G26   30.12R WCI  25
DES MOINES     DRIZZLE   35  30  82 N22G31    30.10R WCI  23

$$



USA.gov is the U.S. government's official web portal to all federal, state and local government web resources and services.